This is the latest recevied weather packets stored in our database for station/object KD4MBW. If no packets are shown the sender has not sent any weather packets the latest 10 day(s).
| Time | Temp. | Humidity | Pressure | Rain* | Wind** | Luminosity | Snow |
|---|---|---|---|---|---|---|---|
| 1787790753 | 27.78° C | 92% | 1014.4 hPa | 0 mm | - | 0 W/m² | - |
| 1787790447 | 27.78° C | 92% | 1014.3 hPa | 0 mm | - | 0 W/m² | - |
| 1787790143 | 27.78° C | 93% | 1014.3 hPa | 0 mm | - | 0 W/m² | - |
| 1787789838 | 27.78° C | 92% | 1014.1 hPa | 0 mm | - | 1 W/m² | - |
| 1787789538 | 27.78° C | 91% | 1014.2 hPa | 0 mm | - | 3 W/m² | - |
| 1787789237 | 27.78° C | 91% | 1014.2 hPa | 0 mm | - | 4 W/m² | - |
| 1787788932 | 28.33° C | 90% | 1014.1 hPa | 0 mm | - | 7 W/m² | - |
| 1787788629 | 28.33° C | 89% | 1014.2 hPa | 0 mm | - | 10 W/m² | - |
| 1787788329 | 28.33° C | 89% | 1014.2 hPa | 0 mm | - | 15 W/m² | - |
| 1787788025 | 28.33° C | 91% | 1014.4 hPa | 0 mm | - | 19 W/m² | - |
| 1787787720 | 28.33° C | 91% | 1014.2 hPa | 0 mm | - | 25 W/m² | - |
| 1787787418 | 28.33° C | 91% | 1014.3 hPa | 0 mm | - | 35 W/m² | - |
| 1787787113 | 28.89° C | 91% | 1014.3 hPa | 0 mm | - | 47 W/m² | - |
| 1787786807 | 28.89° C | 90% | 1014 hPa | 0 mm | - | 54 W/m² | - |
| 1787786502 | 28.89° C | 89% | 1014.4 hPa | 0 mm | - | 69 W/m² | - |
| 1787786192 | 28.89° C | 88% | 1014.3 hPa | 0 mm | - | 72 W/m² | - |
| 1787785887 | 28.89° C | 89% | 1014.4 hPa | 0 mm | - | 73 W/m² | - |
| 1787785583 | 28.89° C | 88% | 1014.3 hPa | 0 mm | - | 68 W/m² | - |
| 1787785278 | 28.89° C | 88% | 1014.1 hPa | 0 mm | - | 67 W/m² | - |
| 1787784977 | 28.89° C | 88% | 1014.4 hPa | 0 mm | - | 68 W/m² | - |
| 1787784676 | 28.89° C | 87% | 1014.4 hPa | 0 mm | - | 63 W/m² | - |
| 1787784375 | 28.89° C | 87% | 1014.4 hPa | 0 mm | - | 58 W/m² | - |
| 1787784070 | 28.89° C | 87% | 1014.4 hPa | 0 mm | - | 53 W/m² | - |
| 1787783766 | 29.44° C | 86% | 1014.3 hPa | 0 mm | - | 50 W/m² | - |
| 1787783465 | 29.44° C | 84% | 1014.1 hPa | 0 mm | - | 66 W/m² | - |
* Rain latest hour (hover to see other rain measurements)
** Current wind speed in m/s (hover to see current wind gust speed)